sat.trackr.live / text

‹ back to catalog

STARLINK-34050

NORAD 64331 · 2025-124Q

PAYLOAD ACTIVE UNKNOWN

§ Identity

Operator
Country
US
Launch date
2025-06-10
Launch site
AFETR
Launch vehicle
Mass (kg)
RCS (m²)

Purposes: comms

External: N2YO · Heavens-Above · Gunter

§ Orbital elements

Epoch: 2026-05-25T00:28:18.921216Z

Period
94.27 min
Inclination
42.9998°
Eccentricity
0.0001613
Mean motion
15.27593742 rev/d
Perigee alt
481.9 km
Apogee alt
484.1 km
Semi-major
6,861.1 km
B*
5.3712e-4
RAAN
50.6742°
Arg perigee
275.8855°
Mean anomaly
84.1813°
Rev number
5,451

§ Raw data

STARLINK-340501 64331U 25124Q   26145.01966344  .00014554  00000+0  53712-3 0  99912 64331  42.9998  50.6742 0001613 275.8855  84.1813 15.27593742 54510

JSON: /api/v1/satellites/64331 · /tle

For live sub-satellite position, see the globe view (requires WebGL).

§ Visibility from observer

Set your observer location to see the next 7 days of passes ≥ 10°. The values pass through the URL so the page stays shareable.

No JS? Fill the form by hand. The geolocation button needs JavaScript.